This is the latest recevied weather packets stored in our database for station/object N4PWG. If no packets are shown the sender has not sent any weather packets the latest 10 day(s).
| Time | Temp. | Humidity | Pressure | Rain* | Wind** | Luminosity | Snow |
|---|---|---|---|---|---|---|---|
| 1777570034 | 17.78° C | 46% | 1035 hPa | 0 mm | - | 443 W/m² | - |
| 1777569730 | 17.78° C | 44% | 1034.9 hPa | 0 mm | - | 514 W/m² | - |
| 1777569425 | 17.78° C | 44% | 1035.2 hPa | 0 mm | - | 554 W/m² | - |
| 1777569123 | 17.22° C | 48% | 1035 hPa | 0 mm | - | 660 W/m² | - |
| 1777568819 | 17.22° C | 45% | 1035.2 hPa | 0 mm | - | 674 W/m² | - |
| 1777568516 | 17.22° C | 43% | 1035.5 hPa | 0 mm | - | 617 W/m² | - |
| 1777568213 | 17.22° C | 43% | 1035.5 hPa | 0 mm | - | 572 W/m² | - |
| 1777567910 | 16.67° C | 43% | 1035.6 hPa | 0 mm | - | 509 W/m² | - |
| 1777567606 | 17.22° C | 47% | 1035.7 hPa | 0 mm | - | 444 W/m² | - |
| 1777567303 | 17.22° C | 45% | 1035.7 hPa | 0 mm | - | 474 W/m² | - |
| 1777567002 | 17.22° C | 46% | 1035.7 hPa | 0 mm | - | 481 W/m² | - |
| 1777566699 | 17.22° C | 46% | 1035.9 hPa | 0 mm | - | 547 W/m² | - |
| 1777566397 | 17.22° C | 43% | 1035.6 hPa | 0 mm | - | 605 W/m² | - |
| 1777566094 | 16.67° C | 46% | 1035.8 hPa | 0 mm | - | 523 W/m² | - |
| 1777565789 | 16.67° C | 47% | 1035.9 hPa | 0 mm | - | 523 W/m² | - |
| 1777565486 | 16.67° C | 50% | 1035.7 hPa | 0 mm | - | 521 W/m² | - |
| 1777565182 | 16.11° C | 47% | 1035.5 hPa | 0 mm | - | 422 W/m² | - |
| 1777564879 | 16.11° C | 47% | 1035.6 hPa | 0 mm | - | 430 W/m² | - |
| 1777564579 | 16.67° C | 47% | 1035.5 hPa | 0 mm | - | 479 W/m² | - |
| 1777564275 | 16.11° C | 48% | 1035.4 hPa | 0 mm | - | 406 W/m² | - |
| 1777563971 | 15.56° C | 47% | 1035.3 hPa | 0 mm | - | 346 W/m² | - |
| 1777563668 | 15.56° C | 50% | 1035.7 hPa | 0 mm | - | 359 W/m² | - |
| 1777563362 | 16.11° C | 49% | 1035.4 hPa | 0 mm | - | 340 W/m² | - |
| 1777563058 | 16.11° C | 50% | 1035.5 hPa | 0 mm | - | 360 W/m² | - |
| 1777562754 | 15.56° C | 50% | 1035.2 hPa | 0 mm | - | 354 W/m² | - |
* Rain latest hour (hover to see other rain measurements)
** Current wind speed in m/s (hover to see current wind gust speed)